Weather History for Cecil Field, FL

Change the Weather History Date:

Friday, February 14, 2014

  Actual Average (KJAX) Record (KJAX)
Temperature  
Mean Temperature 46 °F 56 °F  
Max Temperature 64 °F 68 °F 86 °F (1959)
Min Temperature 28 °F 45 °F 16 °F (1899)
Degree Days  
Heating Degree Days 19 9  
Month to date heating degree days 143  
Since 1 July heating degree days 1019  
Cooling Degree Days 0 1  
Month to date cooling degree days 9  
Year to date cooling degree days 20  
Moisture  
Dew Point 35 °F    
Average Humidity 78    
Maximum Humidity 100    
Minimum Humidity 27    
Precipitation  
Precipitation 0.00 in 0.11 in 2.66 in (1874)
Month to date precipitation 1.50  
Year to date precipitation 4.80  
Snow  
Snow 0.00 in 0.00 in T in (1895)
Month to date snowfall 0.0  
Since 1 July snowfall T  
Snow Depth -    
Sea Level Pressure  
Sea Level Pressure 29.98 in    
Wind  
Wind Speed 3 mph (SSW)    
Max Wind Speed 12 mph    
Max Gust Speed -    
Visibility 9 miles    
Events      
T = Trace of Precipitation, MM = Missing Value Source: NWS Daily Summary

Daily Weather History Graph

Daily Weather History Graph

Search for Another Location

Airport:

Trip Planner

Search our weather history database for the weather conditions in past years. The results will help you decide how hot, cold, wet, or windy it might be!

Date:

Astronomy

Feb. 14, 2014 Rise Set
Actual Time 7:08 AM EST 6:15 PM EST
Civil Twilight 6:43 AM EST 6:39 PM EST
Nautical Twilight 6:15 AM EST 7:08 PM EST
Astronomical Twilight 5:47 AM EST 7:35 PM EST
Moon 6:14 PM EST (2/14) 6:36 AM EST (2/14)
Length of Visible Light 11h 55m
Length of Day
11h 06m
Full, 100% of the Moon is Illuminated
Feb 14
Full
Feb 14
Full
Feb 22
Last Quarter
Mar 1
New
Mar 8
First Quarter

Hourly Weather History & Observations

Time (EST) Temp. Windchill Dew Point Humidity Pressure Visibility Wind Dir Wind Speed Gust Speed Precip Events Conditions
12:15 AM 39.2 °F 37.0 °F 35.6 °F 87% 29.97 in 10.0 mi SW 3.5 mph - N/A   Clear
12:35 AM 39.2 °F 34.2 °F 37.4 °F 93% 29.97 in 10.0 mi SSW 6.9 mph - N/A   Clear
12:55 AM 37.4 °F 33.8 °F 35.6 °F 93% 29.98 in 10.0 mi SW 4.6 mph - N/A   Clear
1:15 AM 37.4 °F - 35.6 °F 93% 29.97 in 10.0 mi Calm Calm - N/A   Clear
1:35 AM 35.6 °F - 35.6 °F 100% 29.98 in 10.0 mi Calm Calm - N/A   Clear
1:55 AM 35.6 °F - 33.8 °F 93% 29.97 in 10.0 mi Calm Calm - N/A   Clear
2:15 AM 32.0 °F - 32.0 °F 100% 29.97 in 9.0 mi Calm Calm - N/A   Clear
2:35 AM 32.0 °F - 32.0 °F 100% 29.97 in 10.0 mi Calm Calm - N/A   Clear
2:55 AM 32.0 °F - 32.0 °F 100% 29.98 in 10.0 mi Calm Calm - N/A   Clear
3:15 AM 32.0 °F - 32.0 °F 100% 29.98 in 3.0 mi Calm Calm - N/A   Clear
3:35 AM 32.0 °F 28.7 °F 32.0 °F 100% 29.98 in 10.0 mi West 3.5 mph - N/A   Clear
3:55 AM 32.0 °F - 32.0 °F 100% 29.97 in 10.0 mi Calm Calm - N/A   Clear
4:15 AM 32.0 °F - 32.0 °F 100% 29.97 in 10.0 mi Calm Calm - N/A   Clear
4:35 AM 32.0 °F - 32.0 °F 100% 29.98 in 10.0 mi Calm Calm - N/A   Clear
4:55 AM 30.2 °F - 30.2 °F 100% 29.98 in 6.0 mi Calm Calm - N/A   Clear
5:15 AM 32.0 °F - 32.0 °F 100% 29.99 in 10.0 mi Calm Calm - N/A   Clear
5:35 AM 30.2 °F 26.7 °F 30.2 °F 100% 30.00 in 7.0 mi South 3.5 mph - N/A   Clear
5:55 AM 30.2 °F - 30.2 °F 100% 30.01 in 4.0 mi Calm Calm - N/A   Clear
6:15 AM 28.4 °F - 28.4 °F 100% 30.02 in 3.0 mi Calm Calm - N/A   Clear
6:35 AM 28.4 °F - 28.4 °F 100% 30.03 in 5.0 mi Calm Calm - N/A   Clear
6:50 AM 28.4 °F - 28.4 °F 100% 30.03 in 7.0 mi Calm Calm - N/A   Clear
7:50 AM 28.4 °F - 28.4 °F 100% 30.05 in 10.0 mi Calm Calm - N/A   Clear
8:50 AM 41.0 °F - 35.6 °F 81% 30.06 in 10.0 mi Calm Calm - N/A   Clear
9:50 AM 48.2 °F - 35.6 °F 62% 30.07 in 10.0 mi Calm Calm - N/A   Clear
10:50 AM 55.4 °F - 35.6 °F 47% 30.06 in 10.0 mi Calm Calm - N/A   Clear
11:50 AM 59.0 °F - 32.0 °F 36% 30.03 in 10.0 mi Variable 5.8 mph - N/A   Clear
12:50 PM 60.8 °F - 32.0 °F 34% 30.01 in 10.0 mi South 11.5 mph - N/A   Clear
1:50 PM 62.6 °F - 28.4 °F 27% 29.98 in 10.0 mi SW 9.2 mph - N/A   Clear
2:50 PM 64.4 °F - 32.0 °F 30% 29.96 in 10.0 mi North - - N/A   Clear
3:50 PM 64.4 °F - 32.0 °F 30% 29.94 in 10.0 mi SW 11.5 mph - N/A   Clear
4:50 PM 64.4 °F - 32.0 °F 30% 29.92 in 10.0 mi SSW 8.1 mph - N/A   Clear
5:50 PM 60.8 °F - 33.8 °F 36% 29.94 in 10.0 mi SW 9.2 mph - N/A   Clear
6:50 PM 55.4 °F - 35.6 °F 47% 29.96 in 10.0 mi SW 9.2 mph - N/A   Clear
7:50 PM 53.6 °F - 37.4 °F 54% 29.96 in 10.0 mi Calm Calm - N/A   Clear
8:15 PM 50.0 °F - 37.4 °F 62% 29.96 in 10.0 mi South 5.8 mph - N/A   Clear
8:35 PM 50.0 °F - 39.2 °F 66% 29.95 in 10.0 mi South 5.8 mph - N/A   Clear
8:55 PM 48.2 °F - 39.2 °F 71% 29.95 in 10.0 mi South 5.8 mph - N/A   Clear
9:15 PM 48.2 °F - 39.2 °F 71% 29.94 in 10.0 mi South 5.8 mph - N/A   Clear
9:35 PM 48.2 °F - 41.0 °F 76% 29.95 in 10.0 mi South 6.9 mph - N/A   Clear
9:55 PM 48.2 °F - 41.0 °F 76% 29.94 in 10.0 mi South 5.8 mph - N/A   Clear
10:15 PM 46.4 °F 42.9 °F 41.0 °F 81% 29.93 in 10.0 mi South 6.9 mph - N/A   Clear
10:35 PM 46.4 °F 42.9 °F 41.0 °F 81% 29.93 in 10.0 mi South 6.9 mph - N/A   Clear
10:55 PM 46.4 °F 43.5 °F 41.0 °F 81% 29.93 in 10.0 mi South 5.8 mph - N/A   Clear
11:15 PM 46.4 °F 42.9 °F 41.0 °F 81% 29.91 in 10.0 mi South 6.9 mph - N/A   Clear
11:35 PM 46.4 °F 42.9 °F 41.0 °F 81% 29.92 in 10.0 mi South 6.9 mph - N/A   Partly Cloudy
11:55 PM 46.4 °F 43.5 °F 42.8 °F 87% 29.90 in 10.0 mi South 5.8 mph - N/A   Clear